Regional Weather Roundup
Issued by NWS

Home | Current Version | Previous Version | Text Only | Print | Product List | Glossary Off
Versions: 1 2 3 4 5 6 7 8 9 10 11 12 13 14 15 16 17 18 19 20 21 22 23 24 25 26 27 28 29 30 31 32 33 34 35 36 37 38 39 40 41 42 43 44 45 46 47 48 49 50

000
ASUS45 KCYS 190210
RWRWY

WYOMING REGIONAL WEATHER ROUNDUP
NATIONAL WEATHER SERVICE CHEYENNE WY
700 PM MST WED JAN 18 2017

NOTE:  "FAIR" INDICATES FEW OR NO CLOUDS BELOW 12,000 FEET
WITH NO SIGNIFICANT WEATHER AND/OR OBSTRUCTIONS TO VISIBILITY.

WYZ001-190300-
YELLOWSTONE NATIONAL PARK

CITY           SKY/WX    TMP DP  RH WIND       PRES   REMARKS
LK YELLOWSTONE   N/A     12  12 100 CALM      29.87S
W YELLOWSTONE  NOT AVBL

$$
WYZ002>013-054>058-071-098>099-190300-
NORTHERN WYOMING

CITY           SKY/WX    TMP DP  RH WIND       PRES   REMARKS
JACKSON        CLEAR      1   0  92 CALM      29.88F
CODY           FAIR      32  18  55 NE16G22   29.68  WCI  21
GREYBULL       FAIR      12   5  73 N8        29.74R WCI   0
WORLAND        FAIR      16  13  88 W7        29.72R WCI   6
SHERIDAN       FAIR      24  17  74 MISG      29.61F
BUFFALO        FAIR      45  19  35 W3        29.62F
GILLETTE       FAIR      43  23  45 S14       29.62F
HULETT         FAIR      36  23  60 SW7       29.63S WCI  30
NEWCASTLE      FAIR      32  21  64 CALM      29.68S

$$
WYZ014>020-022>026-101>103-190300-
CENTRAL WYOMING

CITY           SKY/WX    TMP DP  RH WIND       PRES   REMARKS
BIG PINEY      FAIR      -4  -8  83 E7        29.89S WCI -18
PINEDALE       FAIR       3   0  85 S3        29.90F
DUBOIS         NOT AVBL
LANDER         FAIR      15   8  73 W6        29.77S WCI   6
RIVERTON       FAIR       9   3  77 NW8       29.79R WCI  -3
CASPER         FAIR      32  18  56 SW22      29.72F WCI  19
DOUGLAS        FAIR      35  18  49 NW7       29.70F WCI  29

$$
WYZ021-027>030-104>119-190300-
SOUTHERN WYOMING

CITY           SKY/WX    TMP DP  RH WIND       PRES   REMARKS
EVANSTON       FAIR      21   9  59 E8        29.89S WCI  11
ROCK SPRINGS   FAIR       8   3  80 CALM      29.90R
RAWLINS        FAIR      22  14  71 CALM      29.86F
LARAMIE        FAIR      19  14  81 NE8       29.81F WCI   9
CHEYENNE       FAIR      33  18  53 W9        29.74F WCI  25
TORRINGTON     FAIR      37  18  46 W6        29.69F WCI  32

$$



USA.gov is the U.S. government's official web portal to all federal, state and local government web resources and services.